Precipitable_Water
1.07 1.08 1.09 1.05 1.04 0.99 0.94 0.92 0.86 0.84 0.80 0.80 0.81 0.83 0.84 0.84 0.86 0.89 0.91 0.91 0.93 0.90 0.90 0.91 0.94 0.95 0.97 1.02 1.04 1.03 1.06 1.09 1.15 1.13 1.09 1.04 1.03 1.03 1.06 1.09 1.06 1.04 1.07 1.07 1.08 1.02 0.98 0.93 0.91 0.93 0.99 0.97 0.95 0.95 0.95 0.96 0.97 0.98 1.00 1.03 1.02 1.08 1.19 1.20 1.14 1.10 1.21 1.34 1.28 1.30 1.44 1.55 1.48 1.53 1.59 1.67 1.70 1.77 1.88 1.92 1.89 1.88 1.89 1.88 1.87
1.14 1.14 1.13 1.14 1.11 1.08 1.02 0.99 0.95 0.90 0.86 0.86 0.87 0.86 0.86 0.90 0.97 0.93 0.91 0.99 0.98 0.94 0.94 0.92 0.93 0.93 0.93 0.94 0.99 1.03 1.09 1.16 1.19 1.19 1.15 1.11 1.08 1.10 1.10 1.10 1.06 1.04 1.06 1.04 1.03 0.99 0.94 0.89 0.89 0.92 0.96 0.95 0.95 0.94 0.91 0.89 0.89 0.89 0.94 1.01 1.03 1.04 1.11 1.07 1.14 1.17 1.06 1.25 1.23 1.34 1.38 1.53 1.48 1.54 1.47 1.54 1.64 1.74 1.81 1.82 1.82 1.88 1.89 1.86 1.82
1.26 1.26 1.19 1.19 1.19 1.16 1.10 1.04 0.97 0.92 0.88 0.88 0.86 0.88 0.90 0.96 0.97 0.95 0.97 0.94 0.99 1.01 0.98 0.96 0.99 0.98 0.96 0.96 0.97 1.00 1.04 1.13 1.23 1.25 1.25 1.20 1.16 1.17 1.18 1.14 1.08 1.04 1.04 1.03 1.02 0.99 0.93 0.90 0.89 0.92 0.94 0.93 0.94 0.89 0.85 0.84 0.83 0.84 0.90 1.01 1.05 1.08 1.10 1.13 1.12 1.10 1.10 1.12 1.23 1.24 1.37 1.46 1.50 1.49 1.52 1.55 1.60 1.69 1.77 1.80 1.77 1.85 1.88 1.82 1.75
1.38 1.39 1.33 1.31 1.29 1.20 1.10 1.04 0.96 0.92 0.89 0.89 0.86 0.87 0.85 0.80 0.91 0.93 0.97 0.99 0.95 1.00 1.02 1.02 1.03 1.03 1.01 0.98 0.96 0.95 1.02 1.17 1.26 1.24 1.23 1.24 1.22 1.18 1.18 1.16 1.11 1.06 1.03 1.02 1.01 0.99 0.94 0.90 0.91 0.92 0.92 0.90 0.87 0.82 0.81 0.80 0.78 0.80 0.87 0.99 1.07 1.10 1.12 1.15 1.16 1.14 1.15 1.10 1.16 1.20 1.35 1.39 1.46 1.58 1.56 1.58 1.62 1.67 1.74 1.75 1.78 1.81 1.85 1.82 1.73
1.40 1.43 1.42 1.39 1.34 1.24 1.14 1.05 0.93 0.88 0.85 0.87 0.86 0.88 0.91 0.93 0.96 0.93 0.87 0.91 0.98 1.03 1.05 1.04 1.02 1.01 1.00 0.99 0.97 0.95 0.97 1.08 1.17 1.21 1.24 1.25 1.22 1.18 1.15 1.17 1.13 1.07 1.06 1.04 1.02 1.00 0.95 0.91 0.92 0.94 0.92 0.88 0.85 0.78 0.78 0.75 0.76 0.81 0.87 0.96 1.04 1.11 1.14 1.17 1.18 1.19 1.15 1.11 1.15 1.24 1.32 1.38 1.42 1.53 1.59 1.50 1.53 1.60 1.66 1.69 1.72 1.77 1.82 1.82 1.76
1.39 1.42 1.43 1.39 1.36 1.27 1.15 1.04 0.97 0.94 0.95 0.93 0.89 0.87 0.87 0.84 0.76 0.91 0.98 1.02 1.03 1.05 1.04 1.03 1.02 1.00 1.01 1.00 1.01 1.01 1.04 1.13 1.15 1.17 1.19 1.23 1.23 1.18 1.19 1.22 1.18 1.09 1.09 1.07 1.03 1.00 0.94 0.92 0.93 0.93 0.91 0.88 0.84 0.80 0.78 0.76 0.76 0.79 0.87 0.96 1.04 1.11 1.15 1.17 1.22 1.22 1.19 1.16 1.18 1.15 1.24 1.32 1.35 1.40 1.51 1.52 1.43 1.44 1.52 1.63 1.74 1.80 1.81 1.76 1.73
1.25 1.37 1.43 1.43 1.35 1.25 1.15 1.03 0.95 0.94 0.94 0.91 0.89 0.89 0.91 0.94 0.95 0.99 1.04 1.02 0.98 0.97 0.99 1.00 1.02 0.99 0.98 1.00 1.00 1.03 1.07 1.15 1.16 1.14 1.15 1.14 1.14 1.15 1.18 1.19 1.18 1.17 1.13 1.04 0.98 0.96 0.93 0.92 0.93 0.93 0.91 0.90 0.85 0.80 0.78 0.78 0.78 0.79 0.87 0.95 1.05 1.11 1.15 1.16 1.19 1.23 1.22 1.18 1.17 1.21 1.20 1.31 1.41 1.40 1.53 1.55 1.47 1.44 1.44 1.53 1.59 1.73 1.80 1.75 1.64
1.28 1.34 1.35 1.28 1.22 1.14 1.09 1.03 0.99 0.97 0.93 0.90 0.89 0.88 0.89 0.91 0.93 0.96 0.98 0.97 1.01 1.04 1.02 1.00 0.99 0.97 0.96 0.97 1.01 1.06 1.15 1.22 1.20 1.19 1.20 1.19 1.15 1.13 1.14 1.14 1.11 1.08 1.01 0.98 0.98 0.96 0.93 0.92 0.92 0.96 0.95 0.90 0.85 0.79 0.78 0.78 0.81 0.82 0.89 0.96 1.04 1.11 1.13 1.15 1.16 1.20 1.22 1.19 1.15 1.14 1.20 1.22 1.36 1.46 1.59 1.54 1.39 1.37 1.46 1.49 1.48 1.57 1.68 1.75 1.68
1.36 1.41 1.31 1.18 1.09 1.02 0.97 0.95 0.95 0.95 0.93 0.89 0.86 0.86 0.89 0.93 0.95 0.98 1.03 1.04 1.04 1.05 1.04 1.02 0.98 0.96 0.98 0.99 1.03 1.09 1.18 1.30 1.33 1.32 1.29 1.21 1.17 1.13 1.12 1.08 1.03 0.97 0.94 0.94 0.96 0.96 0.94 0.93 0.94 0.96 0.97 0.92 0.86 0.82 0.82 0.85 0.87 0.87 0.92 0.98 1.04 1.08 1.12 1.13 1.14 1.16 1.21 1.20 1.14 1.18 1.17 1.19 1.30 1.39 1.43 1.40 1.30 1.24 1.38 1.51 1.48 1.56 1.69 1.72 1.69
1.44 1.39 1.24 1.14 1.06 0.97 0.92 0.91 0.91 0.92 0.87 0.83 0.84 0.87 0.91 0.94 0.96 0.99 1.00 1.03 1.05 1.05 1.04 1.02 0.98 0.96 0.97 0.98 1.00 1.07 1.17 1.13 1.14 1.19 1.23 1.22 1.22 1.23 1.17 1.06 0.97 0.94 0.91 0.89 0.90 0.93 0.95 0.95 0.97 0.99 0.99 0.97 0.92 0.88 0.87 0.89 0.95 1.01 1.02 1.03 1.05 1.08 1.10 1.10 1.10 1.13 1.17 1.17 1.14 1.13 1.10 1.12 1.25 1.35 1.35 1.40 1.43 1.40 1.38 1.46 1.42 1.51 1.65 1.65 1.68
1.49 1.37 1.23 1.15 1.06 0.98 0.92 0.89 0.91 0.87 0.83 0.82 0.83 0.87 0.91 0.94 0.96 1.00 1.03 1.06 1.07 1.05 1.02 0.98 0.96 0.94 0.92 0.96 1.01 1.11 1.13 1.15 1.11 1.08 1.11 1.15 1.18 1.15 1.07 1.02 0.98 0.96 0.96 0.94 0.93 0.96 0.98 1.00 1.02 1.06 1.09 1.09 1.05 0.99 0.94 0.94 0.99 1.06 1.09 1.08 1.11 1.13 1.12 1.10 1.10 1.14 1.15 1.17 1.18 1.15 1.13 1.12 1.22 1.37 1.39 1.40 1.44 1.38 1.35 1.45 1.44 1.49 1.55 1.51 1.41
1.49 1.34 1.16 1.08 1.02 0.97 0.92 0.91 0.88 0.86 0.85 0.84 0.86 0.88 0.92 0.94 0.96 0.99 1.02 1.04 1.06 1.02 0.94 0.92 0.92 0.94 0.96 0.99 1.01 1.04 1.04 1.06 1.06 1.01 1.04 1.08 1.11 1.09 1.08 1.06 1.02 1.00 1.00 0.98 0.98 0.99 1.00 1.03 1.07 1.10 1.13 1.14 1.10 1.02 0.97 0.98 1.03 1.09 1.10 1.09 1.10 1.15 1.19 1.17 1.13 1.14 1.17 1.15 1.12 1.13 1.14 1.14 1.19 1.33 1.37 1.40 1.41 1.41 1.37 1.42 1.42 1.46 1.56 1.54 1.46
1.43 1.26 1.09 1.02 0.99 0.94 0.90 0.87 0.86 0.85 0.86 0.87 0.90 0.91 0.92 0.95 0.98 1.00 1.02 1.07 1.05 0.96 0.91 0.89 0.91 0.94 0.95 0.94 0.95 0.98 1.00 1.02 0.99 0.98 1.00 1.03 1.07 1.10 1.11 1.11 1.08 1.07 1.06 1.03 1.00 1.01 1.04 1.07 1.10 1.13 1.14 1.15 1.17 1.11 1.05 1.03 1.07 1.10 1.08 1.06 1.09 1.14 1.15 1.19 1.25 1.26 1.27 1.22 1.16 1.12 1.14 1.15 1.15 1.26 1.37 1.40 1.48 1.37 1.36 1.37 1.39 1.46 1.58 1.61 1.60
1.37 1.20 1.07 1.01 0.96 0.90 0.85 0.85 0.85 0.87 0.90 0.93 0.94 0.95 0.96 0.98 1.03 1.07 1.08 1.08 1.02 0.98 0.94 0.88 0.88 0.91 0.94 0.94 0.93 0.94 0.96 0.99 0.98 0.96 0.97 1.00 1.04 1.09 1.12 1.14 1.15 1.14 1.13 1.14 1.12 1.08 1.08 1.11 1.14 1.14 1.18 1.23 1.26 1.22 1.11 1.04 1.04 1.02 1.01 1.02 1.08 1.13 1.16 1.19 1.23 1.28 1.31 1.28 1.22 1.14 1.17 1.20 1.14 1.25 1.37 1.44 1.39 1.33 1.34 1.38 1.44 1.44 1.51 1.56 1.70
1.22 1.13 1.04 0.99 0.94 0.89 0.86 0.86 0.87 0.90 0.93 0.96 0.98 0.98 1.00 1.03 1.07 1.11 1.13 1.09 1.02 0.99 0.97 0.94 0.89 0.86 0.89 0.93 0.93 0.94 0.98 1.00 1.00 0.99 0.99 1.01 1.03 1.06 1.10 1.14 1.17 1.17 1.16 1.15 1.15 1.13 1.09 1.10 1.13 1.13 1.13 1.11 1.15 1.18 1.12 1.05 1.02 1.01 1.00 1.02 1.11 1.15 1.17 1.21 1.27 1.31 1.31 1.30 1.27 1.23 1.22 1.23 1.22 1.27 1.35 1.41 1.42 1.40 1.44 1.48 1.53 1.56 1.60 1.71 1.76
1.11 1.08 1.00 0.96 0.94 0.90 0.88 0.86 0.87 0.92 0.95 0.98 0.99 1.02 1.06 1.08 1.09 1.15 1.16 1.11 1.04 0.99 0.99 0.97 0.91 0.86 0.87 0.90 0.91 0.92 0.96 0.98 0.98 0.99 1.01 1.01 1.02 1.04 1.08 1.12 1.14 1.15 1.16 1.15 1.15 1.13 1.09 1.08 1.07 1.06 1.03 1.03 1.09 1.18 1.13 1.07 1.03 1.01 0.99 1.03 1.10 1.13 1.17 1.25 1.32 1.35 1.37 1.37 1.35 1.32 1.29 1.28 1.27 1.27 1.30 1.34 1.42 1.49 1.50 1.54 1.60 1.59 1.58 1.64 1.63
1.05 1.01 0.98 0.97 0.96 0.94 0.91 0.88 0.88 0.90 0.95 0.98 1.02 1.07 1.10 1.12 1.13 1.18 1.19 1.16 1.07 1.02 0.99 0.95 0.94 0.92 0.90 0.92 0.93 0.95 0.97 1.00 0.99 0.99 1.01 1.02 1.01 1.02 1.06 1.09 1.11 1.12 1.13 1.14 1.12 1.09 1.09 1.10 1.09 1.05 1.02 1.00 1.03 1.08 1.08 1.05 1.03 1.01 1.02 1.06 1.10 1.12 1.13 1.23 1.29 1.33 1.37 1.40 1.40 1.38 1.36 1.33 1.31 1.30 1.28 1.31 1.33 1.38 1.48 1.48 1.44 1.50 1.51 1.48 1.49
1.01 1.00 1.00 1.02 1.02 0.99 0.96 0.95 0.94 0.95 0.97 0.99 1.04 1.08 1.11 1.13 1.16 1.21 1.20 1.18 1.10 1.05 1.04 1.01 0.96 0.93 0.92 0.93 0.97 0.98 1.00 1.03 1.02 1.03 1.04 1.03 1.02 1.01 1.04 1.07 1.09 1.12 1.13 1.12 1.11 1.10 1.10 1.09 1.09 1.06 1.03 1.02 1.05 1.05 1.03 1.04 1.01 1.00 1.03 1.06 1.07 1.07 1.11 1.21 1.26 1.28 1.35 1.41 1.41 1.40 1.39 1.38 1.36 1.32 1.29 1.29 1.30 1.33 1.34 1.33 1.47 1.51 1.45 1.45 1.40
0.97 0.99 1.02 1.03 1.02 1.02 1.02 1.03 1.02 1.03 1.04 1.07 1.09 1.07 1.06 1.09 1.15 1.18 1.19 1.20 1.14 1.08 1.06 1.04 0.96 0.92 0.93 0.93 0.97 1.00 1.03 1.06 1.10 1.10 1.09 1.05 1.04 1.05 1.08 1.08 1.07 1.10 1.11 1.08 1.09 1.08 1.05 1.07 1.09 1.08 1.06 1.05 1.02 0.98 0.98 1.01 1.00 1.02 1.08 1.09 1.07 1.07 1.13 1.21 1.22 1.22 1.30 1.34 1.34 1.35 1.37 1.43 1.44 1.38 1.31 1.29 1.29 1.29 1.33 1.39 1.60 1.55 1.42 1.48 1.53
1.03 1.06 1.05 1.05 1.04 1.03 1.05 1.06 1.09 1.08 1.10 1.13 1.15 1.11 1.09 1.10 1.10 1.11 1.18 1.23 1.20 1.12 1.05 1.03 0.97 0.94 0.93 0.94 0.98 1.06 1.08 1.12 1.18 1.16 1.11 1.07 1.06 1.06 1.09 1.06 1.03 1.06 1.09 1.08 1.04 1.02 1.02 1.03 1.06 1.06 1.05 1.02 0.97 0.93 0.95 1.03 1.04 1.08 1.12 1.10 1.08 1.07 1.17 1.22 1.22 1.25 1.31 1.35 1.35 1.37 1.39 1.46 1.45 1.39 1.34 1.29 1.27 1.27 1.30 1.38 1.49 1.57 1.54 1.57 1.56
1.11 1.10 1.10 1.09 1.08 1.08 1.10 1.11 1.11 1.13 1.16 1.18 1.19 1.13 1.09 1.09 1.11 1.15 1.22 1.31 1.24 1.12 1.07 1.10 1.06 1.01 1.06 1.12 1.15 1.18 1.24 1.26 1.28 1.22 1.15 1.11 1.10 1.10 1.08 1.07 1.07 1.05 1.05 1.04 1.03 0.96 0.95 0.98 1.03 1.05 1.05 1.00 0.93 0.92 0.99 1.04 1.09 1.12 1.16 1.15 1.16 1.16 1.19 1.20 1.22 1.24 1.27 1.32 1.34 1.36 1.40 1.45 1.46 1.43 1.37 1.33 1.28 1.27 1.30 1.36 1.46 1.60 1.64 1.56 1.46
1.15 1.15 1.14 1.11 1.12 1.13 1.13 1.13 1.14 1.17 1.22 1.22 1.18 1.13 1.12 1.11 1.12 1.14 1.22 1.29 1.23 1.10 1.06 1.13 1.19 1.27 1.31 1.30 1.31 1.38 1.38 1.36 1.36 1.30 1.21 1.15 1.14 1.14 1.10 1.08 1.06 1.01 0.97 0.97 0.97 0.95 0.97 0.99 1.00 1.07 1.04 0.96 0.93 0.98 1.01 1.04 1.11 1.15 1.17 1.20 1.20 1.15 1.16 1.24 1.22 1.21 1.22 1.24 1.26 1.32 1.37 1.42 1.44 1.46 1.44 1.38 1.32 1.32 1.33 1.36 1.43 1.52 1.60 1.57 1.49
1.16 1.16 1.16 1.16 1.14 1.15 1.17 1.16 1.18 1.21 1.23 1.24 1.20 1.17 1.17 1.14 1.19 1.24 1.26 1.30 1.25 1.14 1.14 1.15 1.18 1.11 1.07 1.16 1.24 1.20 1.16 1.18 1.21 1.21 1.17 1.15 1.16 1.14 1.12 1.08 1.07 1.04 0.98 0.95 0.96 0.96 0.99 0.99 1.04 1.06 0.98 0.94 0.99 1.01 1.02 1.07 1.13 1.17 1.17 1.19 1.18 1.17 1.17 1.18 1.17 1.13 1.17 1.18 1.21 1.28 1.34 1.39 1.39 1.42 1.46 1.43 1.39 1.38 1.39 1.41 1.44 1.46 1.49 1.52 1.52
1.21 1.21 1.20 1.19 1.20 1.20 1.21 1.24 1.30 1.34 1.37 1.38 1.34 1.23 1.16 1.18 1.17 1.15 1.23 1.28 1.25 1.22 1.09 0.94 0.89 0.87 0.87 0.89 0.92 1.01 1.06 1.08 1.12 1.16 1.17 1.15 1.15 1.15 1.12 1.08 1.04 1.01 1.01 0.97 0.97 0.97 0.97 1.03 1.05 1.01 0.95 0.97 1.04 1.06 1.06 1.11 1.15 1.15 1.17 1.18 1.16 1.17 1.17 1.16 1.14 1.10 1.13 1.13 1.17 1.26 1.31 1.36 1.40 1.42 1.46 1.51 1.52 1.49 1.47 1.47 1.47 1.47 1.46 1.45 1.47
1.29 1.24 1.23 1.23 1.27 1.35 1.35 1.37 1.37 1.34 1.37 1.35 1.23 1.14 1.18 1.17 1.10 1.09 1.13 1.21 1.22 1.11 1.03 0.98 0.89 0.87 0.87 0.87 0.94 0.99 1.03 1.07 1.12 1.18 1.21 1.18 1.17 1.15 1.09 1.02 0.98 0.97 0.96 0.99 1.02 1.03 1.06 1.06 1.02 0.96 0.98 1.04 1.08 1.09 1.11 1.14 1.12 1.11 1.15 1.15 1.14 1.15 1.14 1.16 1.14 1.09 1.08 1.10 1.17 1.27 1.31 1.35 1.39 1.43 1.52 1.58 1.62 1.63 1.60 1.58 1.56 1.54 1.53 1.50 1.46
1.27 1.25 1.25 1.26 1.26 1.29 1.19 1.12 1.21 1.35 1.34 1.25 1.19 1.17 1.13 1.12 1.10 1.14 1.24 1.28 1.23 1.10 0.95 0.91 0.86 0.86 0.91 0.94 0.99 1.03 1.05 1.10 1.17 1.21 1.20 1.17 1.15 1.08 1.00 0.95 0.94 0.96 0.98 1.01 1.03 1.05 1.03 1.00 0.97 1.00 1.05 1.07 1.07 1.08 1.08 1.13 1.09 1.10 1.13 1.13 1.13 1.13 1.12 1.16 1.17 1.07 1.06 1.10 1.14 1.23 1.30 1.35 1.38 1.44 1.49 1.55 1.55 1.56 1.63 1.61 1.61 1.57 1.55 1.50 1.42
1.22 1.20 1.23 1.22 1.24 1.24 1.22 1.23 1.20 1.19 1.18 1.19 1.17 1.11 1.11 1.12 1.11 1.12 1.22 1.18 1.06 0.95 0.92 0.87 0.88 0.88 0.91 0.95 0.98 0.97 1.00 1.06 1.12 1.13 1.15 1.12 1.07 1.01 0.95 0.92 0.92 0.92 0.93 0.97 0.96 0.96 0.95 0.95 0.98 1.02 1.05 1.06 1.02 1.04 1.08 1.12 1.08 1.08 1.10 1.10 1.11 1.13 1.12 1.16 1.15 1.12 1.07 1.11 1.14 1.19 1.27 1.33 1.37 1.38 1.40 1.44 1.47 1.55 1.65 1.69 1.67 1.69 1.64 1.56 1.48
1.15 1.15 1.17 1.18 1.14 1.15 1.15 1.14 1.16 1.15 1.15 1.11 1.07 1.08 1.11 1.12 1.11 1.14 1.15 1.05 0.96 0.90 0.86 0.84 0.83 0.86 0.90 0.90 0.92 0.93 0.97 1.02 1.03 1.06 1.08 1.05 1.01 0.95 0.91 0.89 0.88 0.89 0.89 0.90 0.91 0.94 0.94 0.97 1.02 1.06 1.02 0.97 0.93 0.98 1.03 1.06 1.05 1.05 1.06 1.08 1.10 1.13 1.15 1.16 1.17 1.17 1.12 1.13 1.15 1.18 1.22 1.29 1.29 1.32 1.35 1.37 1.43 1.52 1.62 1.63 1.64 1.64 1.67 1.70 1.56
1.09 1.03 1.04 1.10 1.09 1.13 1.17 1.18 1.18 1.12 1.10 1.13 1.12 1.13 1.12 1.14 1.15 1.07 1.05 1.00 0.92 0.86 0.84 0.86 0.87 0.88 0.89 0.92 0.90 0.94 0.98 1.00 1.03 1.07 1.06 1.03 0.96 0.91 0.88 0.85 0.84 0.85 0.87 0.87 0.87 0.93 0.95 0.96 1.01 0.98 0.92 0.88 0.87 0.91 0.95 0.98 0.99 1.02 1.04 1.06 1.07 1.09 1.10 1.11 1.08 1.11 1.15 1.13 1.12 1.14 1.16 1.23 1.28 1.33 1.32 1.33 1.36 1.42 1.52 1.54 1.61 1.63 1.72 1.66 1.56
0.98 0.98 0.98 1.03 1.06 1.12 1.13 1.11 1.07 1.06 1.08 1.11 1.10 1.11 1.17 1.13 1.07 1.00 0.93 0.94 0.93 0.92 0.91 0.90 0.91 0.92 0.93 0.93 0.96 0.94 0.95 1.01 1.05 1.06 1.05 1.01 0.95 0.93 0.90 0.85 0.84 0.84 0.84 0.85 0.85 0.84 0.86 0.87 0.85 0.85 0.86 0.85 0.84 0.86 0.89 0.92 0.94 0.96 1.00 1.04 1.06 1.05 1.07 1.08 1.08 1.10 1.16 1.15 1.14 1.13 1.15 1.18 1.22 1.31 1.32 1.28 1.30 1.35 1.42 1.48 1.54 1.59 1.55 1.57 1.50
0.90 0.89 0.90 0.92 1.02 0.98 0.96 0.95 0.98 1.00 1.01 1.04 1.09 1.10 1.08 1.05 1.03 1.01 0.98 0.96 0.97 0.98 0.98 0.97 0.96 0.98 0.97 0.93 0.97 1.01 1.02 1.04 1.05 1.05 1.03 0.98 0.94 0.92 0.88 0.86 0.85 0.85 0.86 0.85 0.85 0.85 0.78 0.76 0.77 0.80 0.81 0.82 0.82 0.84 0.87 0.88 0.91 0.93 0.94 0.98 1.02 1.03 1.05 1.07 1.08 1.10 1.12 1.16 1.13 1.12 1.14 1.16 1.17 1.24 1.28 1.30 1.28 1.28 1.32 1.39 1.43 1.47 1.49 1.49 1.44
0.83 0.84 0.86 0.90 0.93 0.94 0.94 0.97 0.97 1.01 1.03 1.04 1.04 1.04 1.01 1.00 1.01 1.03 1.01 0.97 0.98 0.99 0.98 0.96 0.96 0.97 0.99 0.98 0.98 1.00 1.03 1.04 1.05 1.03 1.00 0.95 0.91 0.89 0.88 0.86 0.84 0.83 0.87 0.86 0.82 0.75 0.73 0.71 0.71 0.73 0.76 0.77 0.79 0.82 0.84 0.85 0.88 0.91 0.92 0.92 0.95 0.99 1.01 1.02 1.10 1.11 1.11 1.12 1.13 1.10 1.11 1.13 1.15 1.19 1.23 1.26 1.30 1.28 1.29 1.28 1.32 1.34 1.39 1.45 1.44
0.82 0.85 0.92 0.95 0.95 0.94 0.94 0.93 0.94 0.96 0.96 0.96 0.96 0.99 0.98 0.99 0.95 0.95 0.96 0.99 0.99 0.99 0.98 0.97 0.96 0.98 0.98 0.98 0.99 0.99 1.00 1.02 1.02 0.99 0.94 0.90 0.88 0.88 0.89 0.88 0.85 0.83 0.83 0.78 0.72 0.68 0.69 0.68 0.68 0.69 0.71 0.71 0.74 0.77 0.80 0.83 0.85 0.88 0.90 0.89 0.90 0.94 0.99 1.03 1.08 1.08 1.10 1.11 1.13 1.12 1.11 1.11 1.13 1.16 1.19 1.22 1.23 1.25 1.28 1.27 1.29 1.30 1.31 1.32 1.37
0.82 0.85 0.86 0.89 0.90 0.89 0.88 0.92 0.92 0.93 0.96 0.97 0.98 0.98 0.96 0.96 0.98 0.95 0.88 0.89 0.94 0.97 0.99 0.98 0.97 0.98 0.98 0.96 0.95 0.95 0.95 0.95 0.93 0.90 0.89 0.90 0.91 0.90 0.90 0.89 0.88 0.84 0.77 0.69 0.67 0.65 0.66 0.66 0.66 0.67 0.69 0.71 0.72 0.74 0.76 0.79 0.82 0.84 0.87 0.88 0.89 0.92 0.95 1.00 1.00 1.01 1.03 1.06 1.07 1.10 1.12 1.11 1.11 1.12 1.15 1.18 1.19 1.21 1.22 1.25 1.28 1.28 1.27 1.26 1.28
0.81 0.80 0.80 0.81 0.83 0.84 0.84 0.87 0.91 0.91 0.96 0.98 0.99 0.95 1.00 1.04 1.02 0.95 0.91 0.90 0.88 0.88 0.90 0.94 0.97 0.99 0.98 0.94 0.90 0.86 0.84 0.85 0.87 0.87 0.86 0.88 0.89 0.92 0.91 0.87 0.83 0.74 0.71 0.70 0.68 0.66 0.65 0.64 0.64 0.65 0.67 0.69 0.71 0.73 0.73 0.74 0.76 0.78 0.81 0.84 0.86 0.87 0.89 0.93 0.93 0.94 0.96 0.99 1.01 1.03 1.07 1.09 1.09 1.11 1.14 1.15 1.14 1.13 1.17 1.20 1.22 1.26 1.27 1.27 1.24
0.83 0.84 0.91 0.90 0.91 0.91 0.92 0.93 0.94 0.93 0.90 0.92 0.93 0.94 0.97 0.96 0.96 0.98 1.00 0.98 0.95 0.92 0.92 0.95 0.98 1.00 0.98 0.95 0.94 0.90 0.87 0.89 0.92 0.91 0.90 0.90 0.90 0.90 0.81 0.76 0.71 0.68 0.67 0.68 0.66 0.65 0.65 0.64 0.63 0.64 0.65 0.66 0.68 0.69 0.70 0.70 0.71 0.72 0.75 0.77 0.79 0.80 0.80 0.82 0.85 0.87 0.90 0.93 0.95 0.98 1.00 1.02 1.05 1.07 1.08 1.12 1.14 1.14 1.16 1.16 1.20 1.24 1.26 1.25 1.26
0.92 0.93 0.95 0.95 0.95 0.97 0.98 0.96 0.95 0.96 0.97 0.96 0.97 0.98 0.97 0.97 0.98 0.98 0.97 0.97 0.97 0.99 0.95 0.96 0.99 0.96 0.96 0.98 0.97 0.95 0.94 0.97 0.97 0.98 0.94 0.91 0.88 0.84 0.79 0.76 0.72 0.71 0.68 0.67 0.67 0.66 0.63 0.63 0.63 0.63 0.64 0.63 0.63 0.63 0.63 0.63 0.64 0.65 0.66 0.68 0.70 0.73 0.74 0.76 0.78 0.81 0.83 0.85 0.89 0.92 0.93 0.95 0.99 1.01 1.03 1.02 1.06 1.09 1.12 1.16 1.18 1.20 1.23 1.26 1.25
0.97 0.95 0.96 0.94 0.95 0.96 0.94 0.93 0.95 0.97 0.96 0.95 0.98 0.98 0.98 0.99 0.98 0.97 0.94 0.93 0.94 0.94 0.94 0.95 0.95 0.91 0.87 0.89 0.94 0.95 0.96 1.01 1.02 1.00 0.97 0.93 0.88 0.81 0.77 0.75 0.73 0.71 0.69 0.69 0.68 0.67 0.64 0.63 0.62 0.61 0.61 0.61 0.60 0.58 0.58 0.58 0.59 0.58 0.59 0.59 0.60 0.61 0.63 0.65 0.69 0.73 0.77 0.79 0.82 0.85 0.88 0.90 0.93 0.95 0.97 0.99 1.00 1.01 1.04 1.09 1.12 1.14 1.15 1.18 1.22
0.95 0.92 0.92 0.93 0.94 0.95 0.94 0.95 0.97 0.96 0.97 0.98 0.99 0.98 0.96 0.94 0.93 0.92 0.92 0.92 0.92 0.93 0.93 0.92 0.90 0.87 0.87 0.89 0.88 0.91 0.90 0.89 0.87 0.85 0.84 0.83 0.82 0.79 0.76 0.73 0.71 0.70 0.69 0.69 0.67 0.65 0.64 0.62 0.61 0.60 0.59 0.58 0.57 0.57 0.55 0.54 0.54 0.54 0.54 0.53 0.51 0.54 0.56 0.57 0.58 0.61 0.64 0.69 0.72 0.76 0.79 0.82 0.85 0.89 0.92 0.93 0.96 0.99 1.02 1.05 1.07 1.09 1.10 1.13 1.16
0.98 0.95 0.94 0.94 0.96 0.96 0.96 0.98 0.99 0.98 0.97 0.95 0.96 0.96 0.93 0.91 0.90 0.90 0.89 0.88 0.88 0.87 0.87 0.85 0.84 0.84 0.86 0.87 0.84 0.84 0.80 0.77 0.76 0.76 0.74 0.73 0.70 0.72 0.71 0.70 0.68 0.66 0.65 0.65 0.65 0.64 0.62 0.61 0.61 0.59 0.58 0.58 0.57 0.55 0.53 0.51 0.50 0.48 0.48 0.48 0.45 0.46 0.48 0.50 0.51 0.51 0.54 0.58 0.60 0.63 0.67 0.72 0.76 0.78 0.82 0.87 0.90 0.94 0.98 1.00 1.02 1.04 1.07 1.09 1.13
0.99 0.99 0.95 0.94 0.96 0.96 0.94 0.94 0.95 0.96 0.97 0.96 0.97 0.96 0.93 0.91 0.91 0.91 0.90 0.88 0.87 0.87 0.87 0.87 0.87 0.88 0.87 0.85 0.84 0.81 0.77 0.73 0.72 0.71 0.70 0.66 0.66 0.66 0.67 0.66 0.65 0.64 0.64 0.64 0.64 0.64 0.64 0.62 0.59 0.58 0.57 0.55 0.54 0.53 0.52 0.50 0.48 0.45 0.43 0.43 0.41 0.40 0.41 0.43 0.45 0.46 0.49 0.51 0.52 0.53 0.56 0.58 0.63 0.66 0.70 0.76 0.82 0.86 0.90 0.95 0.98 1.01 1.04 1.06 1.06
1.01 0.99 0.99 1.00 0.95 0.96 0.95 0.94 0.96 0.97 0.98 0.97 0.95 0.93 0.93 0.93 0.92 0.91 0.90 0.90 0.88 0.87 0.86 0.86 0.87 0.86 0.85 0.82 0.79 0.79 0.76 0.72 0.70 0.67 0.65 0.65 0.64 0.63 0.63 0.64 0.65 0.65 0.63 0.62 0.63 0.61 0.60 0.59 0.58 0.56 0.54 0.52 0.50 0.49 0.49 0.47 0.43 0.39 0.38 0.38 0.36 0.33 0.33 0.34 0.37 0.38 0.39 0.42 0.45 0.47 0.48 0.50 0.52 0.55 0.61 0.66 0.71 0.75 0.79 0.84 0.88 0.93 0.97 1.01 1.02
1.03 1.02 1.02 1.00 0.98 0.97 0.95 0.94 0.95 0.96 0.96 0.95 0.95 0.95 0.95 0.96 0.94 0.94 0.91 0.86 0.86 0.83 0.83 0.83 0.83 0.83 0.81 0.78 0.75 0.71 0.68 0.66 0.65 0.64 0.63 0.62 0.60 0.60 0.61 0.62 0.61 0.61 0.59 0.59 0.58 0.59 0.59 0.57 0.55 0.52 0.50 0.48 0.48 0.46 0.44 0.41 0.36 0.32 0.29 0.27 0.26 0.24 0.23 0.25 0.28 0.31 0.33 0.35 0.38 0.40 0.41 0.43 0.43 0.43 0.49 0.55 0.61 0.66 0.69 0.72 0.77 0.82 0.87 0.92 0.96
1.02 1.01 1.02 1.00 0.99 0.98 0.97 0.98 0.96 0.95 0.96 0.97 0.96 0.92 0.92 0.92 0.91 0.88 0.86 0.83 0.82 0.79 0.79 0.78 0.78 0.78 0.77 0.77 0.73 0.70 0.67 0.65 0.62 0.60 0.58 0.56 0.55 0.55 0.56 0.57 0.57 0.57 0.57 0.57 0.56 0.53 0.52 0.51 0.50 0.49 0.48 0.45 0.44 0.41 0.37 0.35 0.31 0.26 0.23 0.21 0.21 0.20 0.19 0.20 0.23 0.26 0.29 0.31 0.32 0.34 0.34 0.36 0.36 0.34 0.36 0.42 0.47 0.53 0.58 0.62 0.65 0.70 0.76 0.81 0.87
0.99 0.97 0.97 0.96 0.97 0.97 0.96 0.97 0.97 0.96 0.95 0.94 0.91 0.89 0.88 0.86 0.86 0.85 0.82 0.80 0.78 0.76 0.75 0.74 0.73 0.72 0.71 0.71 0.69 0.64 0.62 0.58 0.55 0.53 0.52 0.52 0.50 0.50 0.50 0.53 0.53 0.52 0.50 0.50 0.51 0.50 0.47 0.46 0.46 0.45 0.44 0.39 0.35 0.35 0.33 0.30 0.27 0.22 0.19 0.16 0.16 0.15 0.15 0.16 0.21 0.25 0.27 0.27 0.28 0.29 0.30 0.31 0.29 0.29 0.30 0.33 0.33 0.37 0.42 0.48 0.54 0.58 0.62 0.68 0.76
0.98 0.98 0.97 0.98 0.98 0.96 0.95 0.94 0.94 0.93 0.90 0.87 0.86 0.85 0.84 0.83 0.80 0.79 0.78 0.76 0.75 0.74 0.73 0.71 0.68 0.67 0.68 0.65 0.62 0.59 0.56 0.52 0.49 0.48 0.48 0.48 0.47 0.48 0.48 0.49 0.51 0.49 0.46 0.45 0.45 0.45 0.42 0.42 0.40 0.36 0.35 0.34 0.30 0.28 0.27 0.25 0.22 0.20 0.18 0.16 0.15 0.15 0.16 0.17 0.22 0.25 0.26 0.27 0.28 0.28 0.29 0.29 0.28 0.26 0.26 0.29 0.29 0.29 0.32 0.36 0.41 0.46 0.49 0.55 0.63
0.93 0.92 0.91 0.91 0.90 0.87 0.89 0.88 0.87 0.87 0.86 0.84 0.83 0.83 0.83 0.79 0.75 0.73 0.71 0.70 0.69 0.70 0.69 0.66 0.61 0.61 0.61 0.60 0.56 0.51 0.51 0.48 0.46 0.46 0.45 0.44 0.43 0.46 0.45 0.46 0.45 0.44 0.42 0.39 0.36 0.38 0.37 0.35 0.34 0.32 0.29 0.30 0.30 0.26 0.24 0.23 0.21 0.19 0.18 0.17 0.16 0.16 0.16 0.18 0.22 0.24 0.25 0.28 0.28 0.28 0.29 0.29 0.29 0.26 0.23 0.26 0.28 0.27 0.28 0.30 0.32 0.34 0.37 0.43 0.49
0.89 0.87 0.86 0.86 0.86 0.84 0.82 0.83 0.82 0.81 0.79 0.78 0.77 0.76 0.74 0.73 0.71 0.69 0.67 0.65 0.64 0.63 0.64 0.63 0.59 0.57 0.54 0.51 0.50 0.47 0.44 0.43 0.45 0.48 0.47 0.49 0.43 0.43 0.41 0.42 0.43 0.41 0.40 0.37 0.34 0.32 0.32 0.30 0.30 0.30 0.30 0.29 0.29 0.26 0.24 0.22 0.20 0.18 0.17 0.17 0.17 0.17 0.17 0.18 0.22 0.24 0.26 0.27 0.28 0.29 0.29 0.30 0.30 0.29 0.22 0.24 0.26 0.27 0.26 0.27 0.29 0.31 0.31 0.33 0.37
0.85 0.83 0.82 0.82 0.80 0.80 0.79 0.77 0.76 0.74 0.72 0.71 0.71 0.71 0.70 0.68 0.66 0.65 0.64 0.63 0.60 0.57 0.56 0.54 0.51 0.51 0.49 0.48 0.47 0.45 0.45 0.44 0.44 0.43 0.44 0.44 0.44 0.43 0.39 0.34 0.33 0.35 0.35 0.33 0.32 0.32 0.33 0.30 0.28 0.28 0.29 0.31 0.31 0.28 0.26 0.23 0.20 0.19 0.18 0.18 0.18 0.18 0.18 0.19 0.22 0.24 0.26 0.28 0.29 0.30 0.31 0.31 0.31 0.31 0.25 0.22 0.25 0.27 0.26 0.26 0.27 0.27 0.26 0.28 0.30
0.84 0.82 0.81 0.79 0.77 0.74 0.75 0.74 0.73 0.72 0.71 0.69 0.66 0.65 0.64 0.62 0.59 0.58 0.57 0.56 0.54 0.52 0.51 0.50 0.49 0.48 0.47 0.47 0.44 0.44 0.44 0.41 0.41 0.41 0.41 0.41 0.41 0.39 0.35 0.32 0.34 0.35 0.35 0.33 0.30 0.28 0.33 0.34 0.32 0.30 0.30 0.30 0.32 0.30 0.28 0.26 0.24 0.22 0.20 0.19 0.19 0.19 0.19 0.20 0.24 0.26 0.27 0.29 0.30 0.31 0.32 0.32 0.30 0.31 0.28 0.24 0.26 0.26 0.25 0.25 0.26 0.25 0.24 0.25 0.26
0.79 0.75 0.71 0.68 0.67 0.69 0.69 0.67 0.66 0.64 0.62 0.64 0.65 0.62 0.59 0.58 0.57 0.56 0.53 0.51 0.49 0.48 0.48 0.48 0.48 0.48 0.46 0.45 0.44 0.43 0.42 0.42 0.41 0.40 0.38 0.36 0.35 0.34 0.32 0.31 0.31 0.29 0.30 0.26 0.34 0.33 0.31 0.31 0.33 0.32 0.33 0.33 0.33 0.32 0.30 0.29 0.28 0.25 0.23 0.20 0.19 0.19 0.19 0.20 0.23 0.26 0.29 0.31 0.32 0.33 0.32 0.31 0.31 0.28 0.27 0.25 0.27 0.25 0.25 0.25 0.26 0.25 0.22 0.24 0.24
Wind_Speed
17 17 17 18 18 19 20 21 21 22 22 23 23 22 22 22 23 23 23 23 23 24 24 25 25 25 25 25 26 26 26 27 27 27 27 27 28 28 28 28 29 30 30 30 30 31 31 31 31 30 30 29 29 29 29 30 31 32 33 34 34 35 35 36 37 36 36 36 37 37 38 38 38 38 37 37 37 39 39 38 36 37 38 38 37
17 18 18 18 19 20 20 21 22 23 23 23 23 23 23 23 23 23 23 23 23 24 24 25 25 26 26 26 26 26 27 27 27 28 28 28 28 29 29 29 30 31 31 31 31 31 31 31 31 30 29 28 28 28 29 30 31 32 32 33 34 35 36 37 37 37 36 36 37 37 37 38 38 38 39 39 38 39 40 40 38 37 38 38 38
18 18 19 19 19 20 20 21 22 23 23 24 24 23 24 24 24 24 23 23 24 24 25 25 25 26 26 27 27 27 27 27 28 28 28 29 29 29 30 30 31 31 31 31 31 31 31 30 30 29 28 27 27 28 29 29 30 31 32 32 33 34 35 36 37 37 37 36 37 37 36 37 38 38 38 39 38 39 40 40 40 38 38 38 38
18 19 19 19 19 20 21 21 22 23 24 24 24 24 24 24 24 24 24 24 25 25 25 25 26 26 26 27 27 27 28 28 28 28 29 29 30 30 31 31 31 31 31 31 30 30 30 30 29 27 26 26 27 27 28 29 30 31 31 31 31 32 33 34 36 38 38 37 37 37 37 37 38 38 38 38 38 39 39 40 40 40 39 38 38
19 19 19 19 19 20 21 22 23 24 24 24 24 24 24 24 24 24 24 25 25 25 25 26 26 27 27 27 27 28 28 28 28 29 29 30 30 31 31 31 30 30 30 30 29 29 29 28 27 26 25 25 26 27 27 29 30 30 31 31 31 31 31 32 34 36 38 38 37 38 38 38 38 38 38 38 38 38 39 39 40 39 39 39 38
19 19 19 19 20 20 21 23 23 24 24 25 25 24 24 24 24 25 25 25 26 26 26 27 27 27 28 28 28 28 29 28 28 29 30 30 31 30 30 30 30 30 30 30 29 29 28 27 26 25 25 25 26 27 28 29 30 31 31 32 31 31 30 31 32 34 36 37 37 37 38 38 38 38 38 39 39 38 38 38 39 38 38 39 39
19 19 19 20 20 21 22 23 24 24 25 25 25 24 24 24 24 25 26 26 27 27 27 27 28 28 28 29 29 29 29 29 29 29 30 31 31 30 30 30 30 30 30 30 29 28 27 26 25 25 25 25 26 27 28 29 30 31 32 31 31 30 30 30 31 32 33 35 36 36 37 37 37 37 38 38 39 39 38 38 38 38 37 38 38
20 19 20 20 21 22 23 23 24 24 25 25 25 24 24 24 25 26 27 27 27 27 27 28 28 29 29 29 29 30 29 29 29 30 30 30 30 30 30 30 30 30 30 29 29 28 27 26 25 25 25 26 27 27 28 29 30 31 31 31 30 29 29 29 30 31 32 33 34 35 36 35 35 36 37 38 39 39 38 38 37 37 37 37 38
20 20 20 21 22 23 23 23 24 25 25 25 25 24 24 25 26 26 27 27 27 27 27 28 29 29 29 29 30 30 29 29 29 30 30 30 30 30 30 30 30 30 30 29 28 27 27 26 26 26 26 27 28 28 28 29 30 31 31 30 30 29 29 29 29 29 30 31 32 33 34 35 34 34 35 37 38 38 38 38 37 37 37 36 37
20 21 21 21 22 23 23 23 24 25 25 25 25 24 25 25 26 27 27 27 27 27 28 28 29 29 29 29 29 29 29 29 30 30 30 30 30 30 30 30 29 29 29 28 28 27 27 26 26 26 27 27 28 29 29 30 30 30 31 31 30 29 29 29 29 28 28 30 31 32 33 34 34 34 34 36 37 37 38 38 37 37 37 37 36
21 22 22 22 23 23 23 24 25 25 25 24 24 24 25 26 26 27 27 28 28 28 28 29 29 29 29 29 29 29 29 29 30 30 30 30 30 30 30 29 29 28 28 27 27 27 27 27 26 26 27 28 29 29 30 30 30 30 31 31 31 30 30 30 30 29 28 29 30 32 33 34 34 33 34 35 36 37 38 38 37 36 37 37 36
23 22 22 22 23 23 23 24 25 25 24 24 24 24 25 26 26 27 27 28 28 28 28 29 29 29 29 29 29 29 29 30 30 30 30 30 30 29 29 28 28 28 27 26 26 26 26 26 26 26 27 28 29 29 29 30 30 31 31 31 31 31 31 30 29 29 28 29 31 32 33 34 35 34 33 34 35 36 37 38 38 37 36 36 36
23 23 22 22 23 23 24 24 24 24 24 24 24 25 25 26 27 27 28 28 28 28 29 29 29 29 29 29 30 30 30 30 30 30 30 30 30 29 28 28 28 27 26 25 25 26 26 26 26 26 27 28 28 29 29 29 30 31 31 31 31 31 31 30 28 28 29 29 31 33 34 35 36 34 33 34 35 36 37 38 38 37 36 36 36
22 22 22 22 23 23 24 24 24 25 25 25 25 25 26 27 27 28 28 29 29 29 29 29 29 29 29 29 30 30 31 30 30 30 30 30 29 28 27 27 27 25 25 25 25 25 25 25 25 26 27 27 27 28 29 29 30 31 31 31 31 31 31 30 27 27 28 29 31 33 35 36 37 36 34 34 36 37 37 37 37 37 37 36 36
21 22 22 23 23 23 24 24 25 25 25 25 26 26 27 28 28 29 29 29 29 29 29 30 30 30 30 30 30 30 31 30 30 30 30 29 29 28 27 26 25 24 24 24 24 24 24 24 24 25 25 25 26 27 28 28 30 31 31 31 31 31 30 29 27 27 28 29 31 33 35 37 38 38 36 36 36 37 38 38 37 36 36 35 35
22 22 23 23 23 24 24 25 25 26 26 26 27 27 28 29 29 30 30 30 30 30 30 30 30 30 30 30 30 30 30 30 29 29 29 29 29 28 26 25 24 23 23 23 23 23 24 24 24 24 25 25 26 27 27 28 30 31 31 31 31 31 30 28 27 28 28 29 31 33 35 37 38 39 38 38 38 37 37 38 37 36 35 34 33
22 23 23 24 24 25 25 25 25 26 26 27 28 28 29 30 30 30 30 30 30 30 30 30 30 30 30 30 30 30 30 29 29 29 28 28 28 27 25 24 23 23 23 23 23 23 24 24 24 24 25 25 26 26 27 28 30 31 31 31 31 31 30 28 27 28 28 29 31 33 35 37 39 40 40 40 40 39 38 37 37 37 35 33 33
23 24 24 24 25 25 25 25 26 26 27 28 28 29 30 31 31 31 31 31 31 30 30 30 30 31 31 31 30 30 30 29 28 28 28 27 27 26 24 23 22 22 22 22 23 23 23 24 24 24 24 25 26 26 27 28 30 31 30 30 30 31 30 27 26 28 28 27 28 30 32 34 37 39 40 41 41 42 40 38 37 37 36 34 33
24 24 25 25 25 25 26 26 26 27 27 28 29 30 30 31 31 32 32 31 30 30 30 31 31 31 31 31 31 30 29 28 27 27 27 27 25 24 22 21 21 21 21 22 22 23 23 24 24 24 24 24 25 26 27 28 29 29 29 28 29 30 29 26 26 27 26 26 25 26 28 30 32 34 36 39 41 42 42 40 37 36 36 34 33
25 25 25 25 26 26 27 27 27 28 28 29 29 30 31 31 32 33 33 31 30 30 31 32 32 32 31 31 30 29 28 26 25 25 26 25 23 22 21 21 21 21 21 22 22 22 23 23 23 23 23 24 25 26 27 27 27 27 27 27 28 29 28 26 25 25 24 24 23 23 23 25 27 30 31 34 38 41 43 41 38 37 36 33 33
25 26 26 26 26 27 27 28 28 29 29 29 29 30 31 32 32 33 33 31 30 31 32 33 33 32 30 29 29 28 26 24 23 24 25 24 23 22 20 20 20 21 21 21 22 22 22 22 23 23 23 24 25 26 26 25 26 26 26 25 26 27 27 25 23 23 22 22 21 20 19 19 21 25 28 30 34 38 41 41 39 38 36 34 33
25 26 26 27 27 28 28 29 29 29 29 29 30 31 31 32 33 33 33 32 31 32 32 32 31 30 29 28 28 26 25 24 25 26 26 25 23 21 20 20 21 21 21 21 21 21 21 22 22 23 23 24 25 24 24 24 25 26 25 25 25 26 25 24 23 22 21 20 19 17 15 14 15 20 24 27 30 34 37 39 39 39 37 36 35
25 26 27 28 28 29 30 30 30 30 30 29 30 31 32 32 33 34 33 32 31 30 30 30 30 30 30 30 29 27 27 27 28 28 27 25 23 21 20 21 21 21 21 21 21 21 21 21 22 23 24 24 23 23 23 23 24 25 25 25 25 25 23 22 22 21 20 18 17 15 13 11 12 15 19 23 26 30 33 36 38 38 37 36 36
26 27 28 29 30 30 30 31 31 30 30 30 31 32 32 33 34 34 32 31 30 30 30 31 31 30 30 30 29 29 28 29 29 28 26 24 22 21 20 21 21 21 20 20 21 21 20 21 22 23 23 23 22 22 22 22 23 25 25 24 24 23 22 21 21 20 19 18 16 14 12 10 10 12 15 19 24 27 30 32 34 36 36 35 35
26 28 29 30 30 30 31 32 32 32 31 31 32 33 34 34 34 33 31 29 29 30 31 31 31 30 29 29 29 28 28 29 29 26 24 23 21 20 21 21 21 20 19 20 20 20 20 21 22 22 22 21 21 21 21 21 22 24 24 24 23 22 21 20 20 19 18 17 16 14 12 10 9 11 12 16 20 24 27 30 31 33 33 34 35
28 30 31 31 31 31 32 33 33 32 32 32 33 33 34 33 32 31 29 28 29 31 31 31 31 30 29 28 28 28 28 27 26 23 22 21 20 20 20 20 19 19 18 18 19 19 20 21 21 20 20 19 19 19 19 19 21 22 23 23 22 22 20 19 19 18 17 16 15 14 12 9 7 8 9 12 16 20 24 27 28 30 31 32 33
28 30 31 31 32 33 33 33 33 32 32 33 33 33 32 31 30 30 29 29 30 31 31 30 30 29 28 27 27 28 27 25 23 22 21 21 20 19 19 18 18 18 18 17 18 19 19 19 19 18 18 18 18 18 17 18 19 21 21 22 22 21 20 18 17 17 16 15 15 13 11 8 6 5 6 8 11 14 19 23 26 27 28 29 30
29 30 31 31 32 32 32 31 31 31 31 31 31 31 30 29 29 29 29 31 32 31 31 30 30 29 28 28 27 27 26 23 22 22 22 20 19 18 17 17 17 17 17 17 17 17 17 17 17 16 16 17 17 17 16 17 18 19 20 20 21 20 19 18 17 17 16 15 14 13 11 8 6 4 4 5 7 9 12 17 21 24 26 27 28
30 31 31 31 31 31 30 30 30 30 31 30 30 29 29 28 29 29 30 31 31 30 30 30 29 29 28 27 27 26 24 22 21 21 20 19 17 16 16 16 16 16 16 17 16 16 16 15 15 15 16 17 17 16 16 16 17 18 18 19 20 20 19 17 17 17 16 15 14 13 11 9 7 4 2 3 5 7 8 10 14 17 20 23 25
30 31 31 31 31 30 30 31 31 31 31 31 30 29 29 29 30 30 30 30 29 29 29 28 28 27 26 25 24 24 22 21 20 19 18 17 16 16 16 16 16 16 16 16 15 14 14 14 14 15 16 16 15 15 15 15 16 17 17 18 19 19 19 17 17 17 16 15 14 14 12 9 7 5 3 1 3 5 7 7 8 10 13 16 19
30 31 32 32 31 31 32 32 32 32 31 31 30 30 29 29 29 29 28 28 28 27 27 26 25 25 24 23 23 22 21 20 19 18 17 16 15 15 15 15 15 15 15 15 14 13 13 13 13 14 15 15 14 14 14 15 15 16 16 17 18 19 19 18 17 17 16 15 14 14 13 10 8 7 5 2 1 2 4 6 7 7 9 12 14
31 32 32 32 32 32 32 31 31 31 31 30 30 29 29 29 28 27 27 26 26 26 25 24 23 22 22 22 21 20 19 18 17 16 16 15 14 14 14 14 14 14 14 13 12 12 12 12 13 14 14 14 14 14 14 14 15 15 16 16 17 18 18 17 17 16 16 14 13 13 13 11 10 8 6 4 2 1 2 4 6 6 6 9 11
31 32 32 32 31 31 31 31 30 30 29 29 29 29 28 28 27 26 25 25 25 24 23 22 21 21 20 20 19 18 17 17 16 16 15 15 14 14 14 13 13 13 13 12 11 12 12 12 12 13 13 13 13 13 13 14 14 14 15 15 16 17 17 17 16 16 16 15 13 13 13 12 11 9 8 6 3 2 1 2 4 5 5 6 8
31 31 31 31 31 30 30 30 29 29 28 28 28 28 28 28 27 26 25 24 23 22 21 21 20 20 19 19 18 17 16 16 16 16 15 15 15 14 14 13 13 12 12 12 11 11 12 12 12 12 12 12 13 13 13 13 14 14 14 15 15 16 16 16 16 16 16 15 14 13 12 12 11 10 8 7 6 3 2 1 2 4 5 5 6
31 30 30 30 30 29 29 28 28 27 27 27 27 26 26 25 25 24 24 23 22 21 21 20 20 19 19 18 18 17 16 16 16 16 15 15 14 14 13 12 12 13 13 12 11 11 11 12 12 12 12 13 13 13 13 13 14 14 15 15 15 15 16 16 16 16 15 15 14 13 13 12 12 10 8 7 6 5 3 2 2 2 4 5 6
29 29 28 29 28 28 27 27 26 26 26 26 25 25 24 24 23 23 22 22 21 21 20 19 19 18 19 19 18 18 17 16 16 16 15 15 14 14 13 12 13 13 13 12 11 11 12 12 12 12 12 12 12 13 13 13 14 14 14 14 15 15 15 15 15 15 14 14 14 13 13 12 12 11 10 8 6 5 4 3 3 3 3 4 6
28 28 28 28 27 27 26 25 25 24 24 24 24 23 23 22 21 21 21 21 20 19 19 18 18 18 18 19 19 18 17 16 16 15 15 15 14 14 14 13 13 13 13 12 12 12 12 12 12 12 12 12 12 13 13 13 14 14 14 14 14 15 15 15 15 15 14 13 13 13 12 12 12 11 10 9 8 6 5 4 4 4 4 3 4
27 27 27 27 26 25 25 24 23 22 22 22 22 22 21 20 20 19 19 19 18 18 17 17 17 17 17 18 18 17 16 15 15 15 15 15 14 14 14 14 13 13 13 13 12 12 12 12 12 13 13 13 13 13 13 14 14 14 14 14 15 15 15 15 15 15 14 13 13 12 11 11 11 11 10 9 8 7 6 5 4 4 4 3 3
27 27 26 25 25 24 23 22 21 21 21 21 20 20 20 19 19 19 18 18 17 17 17 16 16 16 16 17 17 16 15 14 14 14 14 14 14 14 14 13 13 13 13 13 13 13 13 13 13 13 13 14 14 14 14 14 14 14 15 15 15 15 15 15 15 15 15 14 13 13 12 11 10 10 9 9 8 8 7 6 5 4 4 3 3
27 26 25 24 24 22 22 21 21 21 21 20 19 19 19 18 18 18 17 17 17 16 16 16 16 17 17 17 17 16 15 15 15 15 15 14 14 13 13 13 13 14 14 14 14 14 14 14 14 14 14 14 15 15 15 15 15 15 15 15 15 15 15 15 15 15 15 14 14 13 12 11 10 9 9 8 8 8 7 6 5 4 3 3 3
26 25 24 23 23 21 21 20 21 20 20 19 19 18 18 17 17 17 17 17 16 16 16 16 16 17 17 18 17 17 16 15 15 15 15 15 14 14 13 13 14 14 14 14 15 15 14 14 14 14 15 15 15 16 16 16 15 15 15 15 15 15 15 15 15 14 14 14 14 13 13 12 11 10 9 8 8 7 7 6 6 5 4 3 2
25 25 23 22 21 20 20 20 20 20 20 19 18 18 17 17 17 17 17 17 17 17 16 16 17 17 18 18 18 17 16 16 16 15 15 15 15 15 14 14 14 14 15 15 15 15 15 15 15 15 15 16 16 16 16 16 16 16 15 15 15 15 15 15 15 15 14 14 14 13 13 13 12 11 10 9 8 7 7 7 7 6 6 5 4
25 24 22 21 20 20 20 20 20 20 19 18 17 17 17 17 17 17 18 18 18 17 17 16 17 17 17 17 17 16 16 16 16 16 16 15 15 15 15 15 15 15 15 15 15 15 15 15 15 16 16 16 16 16 16 16 16 15 15 15 15 15 14 14 14 14 14 14 14 13 13 13 13 12 11 10 9 9 8 7 7 7 6 6 5
23 22 21 20 20 20 20 20 20 19 18 17 17 17 17 17 18 18 18 19 19 18 17 16 16 16 16 16 16 16 16 16 16 16 16 15 15 15 15 15 15 15 15 15 15 15 15 15 16 16 16 16 15 15 15 15 15 14 14 14 14 14 14 14 13 14 14 14 13 13 13 13 13 13 12 12 11 10 9 9 8 7 7 7 7
22 21 20 19 20 20 20 19 19 18 17 17 17 17 17 18 19 19 19 19 19 19 18 17 17 16 17 17 17 17 16 16 16 16 15 15 15 14 14 14 14 14 14 14 14 15 15 15 15 15 14 14 14 14 14 14 13 13 13 13 13 13 13 13 13 13 13 14 13 13 13 13 13 13 12 12 12 11 10 10 9 8 8 7 7
21 19 19 19 19 19 19 19 18 18 18 19 19 18 18 19 19 19 19 19 19 19 19 19 18 17 17 17 18 17 17 16 16 15 15 15 15 15 14 14 14 14 14 14 14 14 14 13 13 13 13 13 13 13 13 13 13 13 13 13 13 13 13 13 13 13 13 14 13 13 13 13 13 13 13 12 12 11 11 10 10 10 9 8 8
20 19 19 19 20 20 20 19 19 19 19 20 20 20 20 20 19 19 19 19 19 20 20 20 19 18 18 18 18 17 17 17 16 16 15 15 15 15 15 14 14 13 14 14 14 13 13 13 12 13 13 13 13 13 13 13 13 13 13 14 14 14 14 14 14 14 14 14 14 14 13 13 13 13 13 12 12 11 11 11 11 10 10 10 9
20 20 20 21 21 21 21 20 20 20 20 21 21 20 20 20 20 20 20 19 19 19 20 20 19 19 19 18 18 17 17 17 16 15 15 15 14 14 14 14 14 14 14 14 14 13 13 13 13 13 13 13 13 13 12 13 13 14 14 14 14 15 15 15 15 15 15 15 15 14 14 14 13 13 13 13 12 12 11 11 11 11 11 10 10
21 21 22 22 22 22 21 21 21 21 21 21 21 21 21 21 21 21 21 20 20 19 19 20 19 19 19 18 18 17 16 16 16 16 15 15 15 15 15 15 14 14 14 14 14 13 13 13 13 13 13 13 13 13 13 13 14 14 15 15 15 16 16 15 16 16 16 15 15 15 15 14 14 14 13 13 13 12 12 12 12 11 11 11 11
22 22 22 21 22 22 22 21 21 21 21 21 21 21 21 21 21 21 21 21 20 20 20 20 19 18 18 18 17 17 16 16 15 15 15 15 15 15 15 15 14 14 14 14 14 14 13 13 13 13 13 13 13 14 14 14 15 15 15 16 16 16 16 16 16 16 16 16 16 16 15 15 14 14 14 13 13 13 12 12 12 12 11 11 11
22 22 22 21 21 21 21 21 21 22 21 21 21 21 22 22 21 21 20 20 20 19 19 19 19 19 18 17 17 16 16 15 15 15 15 15 15 15 15 15 14 14 14 14 13 13 13 13 13 13 13 13 13 14 14 14 15 15 15 16 16 16 16 16 16 16 16 16 16 16 15 15 15 15 14 14 14 14 13 13 13 13 12 12 11
Wind_Direction
281 286 292 297 301 304 307 309 312 315 316 316 315 314 313 312 312 311 311 310 310 311 311 311 311 311 310 309 308 308 308 309 309 309 309 309 309 309 308 307 307 307 306 305 305 306 304 303 301 300 300 299 298 298 298 297 295 293 289 285 281 277 274 271 267 266 264 261 258 255 254 253 251 248 246 245 243 242 240 239 241 241 240 240 240
279 284 290 294 298 302 305 307 310 313 314 314 313 312 312 312 311 310 310 310 311 311 311 310 310 310 310 310 308 308 308 308 309 310 309 309 309 308 307 307 307 306 306 305 305 305 304 303 301 300 300 299 299 299 299 299 298 297 294 289 284 279 275 272 268 266 264 261 258 256 253 252 250 248 246 244 244 242 240 239 241 242 241 240 240
277 283 287 291 296 300 303 305 308 310 312 313 312 311 311 311 310 309 310 311 311 311 311 310 310 310 310 310 310 309 308 308 308 309 309 309 309 308 306 306 306 306 305 305 305 305 304 303 302 301 300 299 299 300 301 301 302 301 299 294 288 282 277 272 268 265 264 261 258 255 252 250 248 247 246 245 244 242 240 239 240 241 241 240 241
274 280 284 288 294 300 302 305 308 309 311 311 311 310 309 311 312 312 311 312 313 312 311 310 310 309 309 309 309 310 310 309 308 308 308 308 308 307 306 305 305 305 305 306 306 305 305 303 302 300 299 299 300 301 303 304 305 304 302 299 293 287 281 275 269 266 263 260 257 254 252 250 248 247 246 244 243 242 240 239 240 241 242 241 242
273 278 280 284 291 297 301 304 307 309 310 310 310 309 310 311 312 312 312 313 313 312 311 311 311 310 309 309 308 309 309 309 308 308 308 308 307 306 306 305 305 305 306 306 306 305 304 302 301 300 299 299 301 303 304 306 307 307 306 303 297 291 285 279 273 267 264 260 256 253 251 250 248 247 245 243 242 241 240 240 240 241 241 241 241
274 277 279 283 288 293 299 303 306 307 308 309 309 309 310 310 310 311 313 313 312 311 310 311 311 310 310 309 309 308 308 308 308 307 307 307 307 306 305 305 305 305 306 306 305 304 302 301 299 299 299 300 301 303 305 307 309 309 308 305 300 294 289 284 277 271 265 261 256 252 250 249 248 246 244 243 241 241 240 240 240 240 241 241 240
274 276 279 284 288 292 297 302 305 306 308 308 309 309 309 310 310 311 312 311 310 310 310 310 310 310 310 310 309 309 308 307 308 307 307 307 307 306 305 305 305 305 305 305 303 302 301 300 298 298 299 300 302 304 307 308 310 311 310 307 303 297 291 288 282 275 268 262 256 252 249 248 247 245 244 243 241 240 239 239 239 239 240 240 238
274 275 279 285 290 294 298 302 304 306 307 308 308 308 309 309 310 310 311 310 310 310 309 309 309 310 310 309 309 309 308 307 308 308 307 306 306 306 305 305 305 304 304 304 302 301 300 299 297 296 298 300 302 305 307 309 310 312 311 308 305 299 294 290 286 278 270 263 256 252 249 247 246 245 244 242 240 239 238 238 238 238 238 238 237
273 276 280 285 290 295 298 301 304 305 306 306 307 307 308 308 309 309 310 310 310 309 309 310 310 310 310 310 309 309 309 309 309 308 307 306 305 305 305 305 305 305 304 303 301 300 300 299 297 295 296 299 302 304 306 309 310 311 311 309 306 302 296 292 288 282 273 263 257 253 249 246 245 245 244 241 239 239 237 237 237 237 237 238 238
273 278 281 284 290 294 298 301 303 304 305 305 306 307 307 308 308 308 309 309 309 309 310 310 311 310 310 310 310 309 309 309 309 308 307 306 306 305 305 306 305 304 303 302 301 300 299 298 297 296 297 298 301 303 305 307 309 310 310 309 307 304 298 293 289 284 275 264 258 254 249 246 245 245 245 242 240 238 236 235 236 236 236 238 238
272 277 281 284 289 293 297 300 302 303 304 305 306 306 307 307 308 308 308 309 309 309 310 311 310 310 310 310 310 309 309 309 309 308 307 306 306 306 306 306 306 305 304 302 302 301 300 299 298 297 298 299 302 304 305 307 309 310 310 309 307 304 300 293 288 284 276 266 259 254 249 246 245 246 246 243 240 238 236 235 235 235 234 235 236
269 275 281 284 288 293 297 300 301 302 304 305 306 306 307 307 308 308 308 309 310 310 311 311 310 310 310 309 309 309 309 308 308 307 307 306 305 306 306 307 306 305 304 304 303 303 301 300 299 299 299 300 303 305 306 308 310 311 310 310 308 305 301 294 287 281 276 267 259 254 250 246 245 246 246 243 239 237 235 234 235 234 234 234 235
266 273 279 284 289 293 296 298 299 301 303 304 305 305 306 307 308 308 309 310 310 311 311 311 310 310 309 309 308 309 308 308 307 307 307 305 305 305 306 305 305 304 304 305 305 305 304 302 301 301 302 302 304 306 308 310 311 312 311 311 310 307 303 296 288 280 275 268 260 255 250 246 244 245 246 243 239 236 234 233 234 234 233 234 235
265 272 278 284 289 293 295 296 297 300 301 302 303 304 306 307 307 308 309 310 310 310 311 311 311 310 309 309 309 309 309 308 308 308 307 306 305 305 304 303 303 302 303 304 306 307 307 305 304 305 305 305 305 308 310 311 312 313 312 311 310 309 305 300 291 283 276 269 261 256 251 247 244 245 245 243 239 236 233 232 232 232 232 234 235
267 273 278 285 290 292 294 295 297 298 300 300 301 302 304 306 306 307 308 308 309 310 310 311 311 310 310 310 310 310 310 309 308 308 307 306 306 305 303 302 300 300 302 304 306 307 308 308 307 307 308 308 308 309 311 313 314 314 314 312 311 311 309 303 295 288 281 273 265 257 252 248 245 245 244 242 239 236 233 232 231 231 232 234 235
269 274 280 286 290 291 293 294 296 297 298 299 300 300 301 303 305 306 307 306 307 308 309 309 310 310 309 309 309 310 311 310 309 309 308 307 307 305 303 300 299 298 301 303 305 306 308 309 309 309 310 311 310 310 312 315 316 316 315 313 312 313 311 305 298 292 285 278 269 261 255 250 247 245 243 240 238 235 232 231 230 230 231 232 233
271 277 283 287 289 291 292 293 294 295 296 297 298 299 300 302 304 304 304 304 305 306 307 308 309 309 309 308 308 309 310 311 310 310 309 309 308 305 302 300 298 298 299 302 304 306 308 308 309 311 312 312 312 313 315 317 318 317 316 315 315 316 313 307 302 297 291 282 273 265 258 252 248 245 242 238 235 233 230 229 228 228 229 230 232
275 280 284 287 289 291 292 292 293 294 295 296 298 299 300 301 302 303 302 302 303 304 306 307 309 309 308 308 307 307 308 310 310 310 310 310 309 305 302 300 299 298 299 301 304 306 307 308 309 311 312 313 314 316 317 318 319 319 318 318 319 319 316 310 307 304 297 288 278 269 261 254 249 245 241 237 233 229 227 227 226 226 228 230 231
278 282 285 287 289 290 291 291 292 293 294 295 296 298 299 301 302 302 302 301 301 303 305 306 307 308 308 308 307 307 307 309 309 309 311 312 309 305 302 301 300 299 300 302 303 305 307 309 310 311 312 314 316 317 318 319 320 320 320 320 322 323 320 314 312 310 304 296 287 277 268 260 251 244 239 235 231 227 224 224 225 225 226 229 230
280 283 285 286 288 289 290 290 291 291 292 294 295 297 299 300 302 303 302 300 300 303 305 305 306 306 307 308 307 307 307 307 308 311 314 314 311 306 302 301 300 300 300 302 303 304 307 309 311 313 314 315 316 318 319 320 322 323 322 323 325 327 325 320 318 317 313 306 297 286 275 264 250 241 236 233 229 225 222 222 223 224 225 227 229
281 283 285 286 287 288 288 288 289 290 291 293 295 297 299 300 301 303 301 299 299 302 305 305 305 305 306 308 309 310 309 308 310 313 315 314 310 306 302 301 301 301 302 303 303 305 307 309 312 314 315 316 317 319 320 322 324 325 326 326 328 330 329 326 323 322 321 316 307 294 281 267 250 237 232 230 227 223 220 221 222 223 224 227 228
284 285 286 287 288 288 289 289 290 290 291 292 294 297 299 301 302 303 301 297 297 302 306 307 307 307 308 311 313 313 310 308 308 310 312 311 308 304 301 301 302 302 302 302 303 305 307 310 312 313 315 317 318 319 321 323 326 328 328 327 328 331 332 332 329 327 325 323 317 303 287 273 255 238 229 226 224 221 219 220 222 223 226 228 228
287 287 288 288 289 289 290 290 290 290 290 292 295 298 300 301 303 304 302 297 298 303 307 308 307 306 307 308 309 308 306 305 305 306 307 307 304 301 299 300 301 301 300 301 303 305 307 309 311 313 316 318 319 320 321 324 326 329 329 328 328 331 333 335 335 331 329 330 327 314 297 277 259 245 232 225 222 220 219 221 222 224 227 229 229
287 288 289 290 289 290 291 293 294 293 293 294 296 299 300 301 302 303 301 297 297 302 305 305 305 305 305 305 305 305 304 304 304 304 304 302 300 299 299 300 300 300 299 300 302 304 307 308 310 313 315 317 318 319 322 324 328 331 332 330 330 332 334 337 339 337 333 335 337 327 311 287 261 249 239 228 222 220 221 222 224 225 227 229 228
289 290 292 292 291 291 293 294 295 295 295 296 297 299 299 299 300 301 299 295 295 299 303 304 304 305 305 305 305 305 305 305 304 302 301 300 300 300 301 301 300 299 299 301 302 304 306 308 310 313 315 316 318 320 322 326 330 334 336 336 334 335 335 338 343 344 339 338 341 338 329 307 271 251 240 231 225 222 222 223 225 226 227 229 229
291 291 292 293 293 292 293 293 295 295 295 296 297 298 298 298 299 299 297 295 297 300 302 303 303 304 304 305 306 306 306 306 305 302 299 299 300 301 301 301 301 301 300 301 302 303 306 308 311 313 315 317 320 321 323 328 333 336 340 342 341 341 341 341 346 350 348 344 343 344 343 330 294 258 239 231 228 226 224 224 225 226 227 227 228
293 292 292 293 293 292 293 293 294 295 295 295 296 297 296 297 297 296 295 296 299 301 302 303 303 303 303 305 306 306 305 304 303 301 299 298 299 301 301 302 303 304 303 303 304 305 307 310 312 315 316 318 321 322 323 328 334 338 342 346 346 347 347 347 350 353 354 352 350 348 349 346 325 281 248 233 229 228 227 226 226 226 227 227 226
294 294 294 294 294 293 293 293 293 294 295 296 297 297 296 295 296 295 295 298 300 301 302 303 303 303 304 305 306 305 304 301 299 298 297 296 297 298 300 303 305 305 306 306 307 307 309 312 314 316 317 320 323 325 326 329 334 338 343 347 349 351 352 353 354 355 356 356 357 355 354 355 351 322 269 242 232 229 229 229 228 228 227 226 226
295 296 295 295 294 294 294 294 294 295 296 296 297 297 296 296 296 296 297 299 300 300 301 302 303 303 304 305 305 304 302 301 299 296 295 294 294 295 298 301 304 305 306 308 309 310 313 315 318 319 319 321 325 327 328 330 333 338 344 349 351 353 354 355 356 357 357 358 2 3 2 2 3 357 317 250 231 229 231 230 227 226 225 225 226
296 296 296 295 295 294 293 294 294 295 296 295 295 294 295 296 296 296 297 298 299 300 301 301 302 303 303 304 305 304 302 301 299 295 292 291 291 293 295 298 301 302 304 306 308 311 315 319 320 320 320 323 327 329 330 332 334 337 343 350 353 354 355 355 356 358 359 1 5 9 10 8 7 8 4 315 229 228 230 226 219 220 222 223 225
295 296 296 296 296 295 294 293 293 293 294 293 292 291 292 295 296 296 296 297 298 300 301 302 303 304 303 304 304 303 302 301 297 294 292 290 290 292 294 297 300 302 304 306 307 311 316 319 320 321 322 324 329 331 333 334 335 337 342 348 354 356 356 355 356 359 2 4 6 10 13 13 12 12 10 3 287 227 221 216 213 217 221 222 224
296 296 296 296 296 295 294 293 292 292 292 292 291 290 291 293 294 295 296 297 298 300 302 302 303 304 304 303 303 303 303 300 296 293 291 289 289 290 292 297 302 302 303 305 308 311 315 318 319 321 323 326 329 332 334 335 336 338 341 346 352 356 358 358 357 358 3 6 7 9 12 13 14 14 14 7 345 278 215 207 209 214 221 222 221
297 297 297 298 297 296 294 293 292 292 292 291 291 291 290 289 290 292 294 296 297 299 300 301 302 304 304 302 302 302 301 297 294 293 290 288 288 289 289 294 299 302 302 304 307 310 312 316 319 321 323 326 329 331 334 335 336 338 341 345 349 354 357 359 359 359 2 6 6 7 9 11 12 14 14 14 5 335 286 237 222 218 221 226 222
297 298 298 298 298 296 295 294 293 293 293 291 291 291 290 288 288 289 290 293 295 296 297 298 300 302 301 301 302 302 300 296 294 293 291 288 288 288 287 289 293 299 303 305 306 309 312 315 318 320 322 324 327 329 331 334 335 336 338 340 343 348 354 357 359 360 1 4 6 6 6 8 11 14 14 15 15 6 342 298 261 238 229 228 223
298 299 298 298 297 296 295 294 294 293 292 291 291 291 290 289 289 288 288 290 292 293 294 295 297 297 298 299 301 302 300 297 295 294 292 290 288 288 287 287 289 295 300 303 303 306 311 313 315 317 317 318 321 323 325 328 330 332 334 335 336 340 346 351 355 357 358 0 3 5 5 5 9 12 13 14 11 3 354 340 310 271 240 232 231
299 299 299 298 297 296 295 295 294 293 292 292 292 291 290 290 290 289 289 290 290 289 291 293 293 293 295 298 299 300 298 296 295 294 293 292 290 288 286 287 289 292 296 298 299 302 306 309 312 313 313 314 317 319 320 323 326 329 331 333 333 335 339 344 349 352 354 356 358 1 4 5 5 6 9 12 10 358 347 334 316 301 271 241 233
299 299 299 298 297 296 295 295 294 293 293 293 293 292 291 290 290 290 290 290 289 288 289 291 290 291 294 297 299 298 296 292 291 293 293 292 290 287 286 286 288 290 291 293 295 298 302 305 308 310 311 312 314 316 317 319 323 326 328 330 331 333 335 338 343 348 351 353 354 356 360 3 3 2 2 5 5 359 349 334 314 299 293 277 249
299 299 299 298 297 295 294 294 293 293 294 294 293 292 291 290 290 290 291 291 289 288 290 292 291 292 294 297 298 298 295 290 289 291 292 290 288 287 286 285 286 287 287 288 289 293 297 301 304 307 309 310 312 313 314 315 316 319 322 324 326 329 331 333 337 341 345 348 350 352 354 357 359 0 360 359 0 358 352 346 335 317 305 295 267
298 299 299 298 296 294 293 292 292 293 294 294 293 291 290 289 290 290 290 291 289 288 289 291 292 293 295 296 298 298 296 291 289 290 292 292 290 288 286 285 285 285 285 285 286 290 294 298 301 303 306 309 310 312 313 313 313 314 316 318 320 323 325 327 330 333 336 339 342 345 347 348 350 353 355 356 358 357 353 348 341 327 312 299 274
296 297 297 296 294 293 292 291 292 293 293 292 291 290 289 289 289 289 288 288 288 288 290 291 291 293 295 296 297 296 294 292 291 290 291 292 292 291 288 286 285 284 283 284 286 288 291 294 297 299 302 305 307 309 311 312 313 313 314 315 316 318 320 322 324 325 327 329 332 335 339 341 342 342 342 345 349 352 351 348 341 330 311 292 276
294 294 294 293 292 291 291 291 292 292 291 290 290 290 289 288 288 288 287 286 287 288 290 291 292 294 296 296 294 292 291 291 292 293 292 291 290 289 287 286 284 283 282 283 284 286 287 290 293 296 299 301 303 306 308 310 311 312 313 314 315 316 317 318 320 321 321 322 325 328 330 333 335 334 331 330 331 335 338 337 337 335 328 315 302
293 292 291 290 288 288 289 290 290 290 289 288 288 289 287 285 286 287 287 286 286 287 288 290 291 294 296 296 293 291 291 291 291 292 292 291 289 287 285 284 283 282 282 282 283 284 285 287 290 293 296 298 300 302 305 307 309 310 312 313 315 316 316 317 318 319 319 319 320 323 325 327 329 328 326 323 321 320 321 322 323 326 325 321 317
291 290 289 287 286 286 288 289 289 289 288 286 286 286 285 283 284 284 284 284 285 285 286 287 289 291 294 294 292 291 291 292 291 290 290 290 289 287 284 282 282 282 282 282 283 284 285 287 289 292 294 296 298 300 302 304 306 308 309 312 313 315 317 317 317 318 319 318 318 320 322 324 325 324 323 321 319 316 313 310 309 311 312 310 308
290 288 286 285 285 286 287 288 288 287 286 285 284 285 284 282 282 282 284 285 286 285 286 287 288 289 291 291 290 290 291 291 291 289 288 288 288 287 284 283 283 284 285 284 284 285 286 287 288 290 292 294 296 298 300 303 305 307 308 310 313 315 317 318 318 319 319 318 318 319 321 322 322 321 320 319 318 316 314 311 306 302 300 297 296
287 284 283 283 284 285 286 287 286 285 284 285 284 284 284 283 282 283 285 287 288 288 287 287 287 288 290 289 288 288 289 290 290 288 287 286 286 286 285 285 285 285 285 285 285 287 287 286 287 288 290 292 294 297 299 302 305 306 308 310 312 314 317 317 317 318 320 319 319 320 322 322 322 320 319 318 317 315 312 310 308 305 300 293 289
283 282 281 281 282 283 284 285 284 283 284 285 284 282 282 283 283 284 286 287 288 288 286 285 285 286 288 287 285 285 285 287 287 285 284 284 283 283 284 285 284 283 284 284 286 287 287 285 286 287 289 290 292 294 297 301 304 305 308 309 310 311 313 313 313 315 317 317 317 318 320 321 320 320 319 318 317 315 312 309 309 308 304 297 291
280 280 280 280 281 282 282 282 283 282 284 285 284 282 282 283 284 284 285 287 288 288 287 286 286 287 285 284 285 284 284 284 282 280 281 283 281 279 280 282 283 283 284 284 284 285 285 285 286 287 287 288 289 291 294 298 300 302 305 306 306 306 307 308 308 310 312 312 312 314 316 317 317 317 317 316 315 315 314 311 309 307 303 299 295
278 279 280 279 280 281 281 282 283 283 284 284 284 283 284 285 286 287 287 288 289 289 285 284 285 285 284 284 285 284 283 283 281 279 281 283 281 278 278 279 279 280 283 283 283 283 284 285 286 286 286 288 289 289 292 295 298 300 302 303 302 303 304 304 304 305 306 307 307 307 308 310 311 312 313 313 312 312 312 312 310 307 303 299 296
279 281 281 281 281 281 282 282 283 283 284 284 284 283 283 284 284 285 285 285 286 285 282 280 282 283 283 283 283 282 281 281 280 279 280 280 279 278 279 278 276 276 279 280 281 282 283 283 285 286 287 288 288 289 291 295 297 298 299 300 300 301 302 302 301 301 302 302 302 302 302 303 305 305 306 307 306 306 307 309 309 307 304 301 298
280 281 281 281 282 282 281 282 282 283 283 283 282 282 282 282 282 282 283 282 282 281 281 280 281 281 280 280 281 280 279 279 279 279 279 278 278 278 279 279 276 276 277 278 279 280 281 282 284 286 287 288 287 288 291 295 297 296 296 298 299 300 300 299 298 299 299 299 298 297 298 299 299 300 300 300 300 300 302 303 304 303 302 301 299
281 280 279 279 279 279 279 279 280 281 281 281 282 282 282 281 280 280 281 282 282 281 280 279 279 279 279 278 278 278 279 279 280 280 279 278 277 277 278 278 277 276 276 277 278 279 280 282 283 285 286 287 286 287 291 295 296 295 296 298 300 300 300 299 298 298 300 300 297 295 295 296 296 296 296 297 296 296 296 298 299 298 297 297 297